STSAT-3

Last updated on Wed Sep 17 2025 00:03:34 GMT+0000 (Coordinated Universal Time)

1 39422U 13066G 25259.65491628 .00003372 00000+0 27296-3 0 9993 2 39422 97.5714 230.0979 0012286 244.2847 115.7109 15.00355923643151
UTC large
Height (km)
Speed (km/s)
/
Latitude / Longitude
Inclination (degrees)
Orbital Period (minutes)
Azimuth
Elevation
Range (km)
Doppler Factor

Next 0 passes for location: London (51.5072 / 0.1276)

Sorry there are no passes over London.